Location: Unspecified
(47.4992°N, 121.7766°W)
Time: 13:31:03
(UTC-07:00)

ISS - Visible Passes

Search period start: 25 September 2018 00:00
Search period end: 05 October 2018 00:00
Orbit: 403 x 408 km, 51.6° (Epoch: 26 September)

Date Brightness Start Highest point End Pass type
(mag) Time Alt. Az. Time Alt. Az. Time Alt. Az.
25 Sep -3.4 19:43:26 10° SW 19:46:37 47° SSE 19:49:32 12° ENE visible
25 Sep -2.2 21:19:56 10° W 21:22:13 36° WNW 21:22:13 36° WNW visible
26 Sep -3.5 20:27:54 10° WSW 20:31:11 64° NNW 20:32:29 32° NE visible
26 Sep -0.3 22:04:54 10° WNW 22:05:09 12° WNW 22:05:09 12° WNW visible
27 Sep -3.8 19:35:56 10° WSW 19:39:14 89° S 19:42:33 10° ENE visible
27 Sep -2.2 21:12:50 10° WNW 21:15:19 34° NW 21:15:19 34° NW visible
28 Sep -2.9 20:20:45 10° W 20:23:57 45° N 20:25:24 26° NE visible
28 Sep -0.4 21:57:41 10° WNW 21:58:05 13° WNW 21:58:05 13° WNW visible
29 Sep -3.3 19:28:40 10° W 19:31:56 56° NNW 19:35:12 10° ENE visible
29 Sep -2.3 21:05:40 10° WNW 21:08:07 34° NNW 21:08:07 34° NNW visible
30 Sep -2.8 20:13:36 10° WNW 20:16:44 38° N 20:18:08 25° NE visible
30 Sep -0.5 21:50:20 10° WNW 21:50:48 13° WNW 21:50:48 13° WNW visible
01 Oct -2.9 19:21:28 10° W 19:24:38 42° N 19:27:49 10° ENE visible
01 Oct -2.5 20:58:21 10° WNW 21:00:47 37° NNW 21:00:47 37° NNW visible
02 Oct -2.9 20:06:19 10° WNW 20:09:28 39° N 20:10:45 26° NE visible
02 Oct -0.5 21:42:53 10° WNW 21:43:25 14° WNW 21:43:25 14° WNW visible
03 Oct -2.8 19:14:13 10° WNW 19:17:21 38° N 19:20:28 10° ENE visible
03 Oct -2.8 20:50:54 10° WNW 20:53:24 45° NW 20:53:24 45° NW visible
04 Oct -3.3 19:58:53 10° WNW 20:02:07 49° NNE 20:03:23 30° ENE visible
04 Oct -0.6 21:35:27 10° WNW 21:36:03 14° WNW 21:36:03 14° WNW visible
